Juliana Airport, Sint Maarten

9:42 PM AST on August 17, 2017 (GMT -0400)
Princess Juliana International

Weather History for TNCM - January, 2012

Change the Weather History Date:

Saturday, January 7, 2012

  Actual Average Record
Temperature  
Mean Temperature 80 °F -  
Max Temperature 84 °F 81 °F 86 °F (2001)
Min Temperature 76 °F 72 °F 71 °F (2005)
Cooling Degree Days 15    
Growing Degree Days 30 (Base 50)    
Moisture  
Dew Point 69 °F    
Average Humidity 68    
Maximum Humidity 78    
Minimum Humidity 58    
Precipitation  
Precipitation 0.00 in 0.08 in - ()
Sea Level Pressure  
Sea Level Pressure 30.04 in    
Wind  
Wind Speed 8 mph ()    
Max Wind Speed 15 mph    
Max Gust Speed -    
Visibility 6.7 miles    
Events Rain    
Averages and records for this station are not official NWS values.
T = Trace of Precipitation, MM = Missing Value Source: Averaged Metar Reports

Daily Weather History Graph

Daily Weather History Graph

Search for Another Location

Airport or City:

Trip Planner

Search our weather history database for the weather conditions in past years. The results will help you decide how hot, cold, wet, or windy it might be!

Date:

Astronomy

Jan. 07, 2012 Rise Set
Actual Time 6:45 AM AST 5:51 PM AST
Civil Twilight 6:22 AM AST 6:15 PM AST
Nautical Twilight 5:55 AM AST 6:42 PM AST
Astronomical Twilight 5:28 AM AST 7:08 PM AST
Moon 4:33 PM AST (1/7) 5:10 AM AST (1/7)
Length of Visible Light 11h 53m
Length of Day
11h 06m
Waxing Gibbous, 97% of the Moon is Illuminated
Jan 7
Waxing Gibbous
Jan 9
Full
Jan 16
Last Quarter
Jan 23
New
Jan 31
First Quarter

Hourly Weather History & Observations

Time (AST) Temp. Heat Index Dew Point Humidity Pressure Visibility Wind Dir Wind Speed Gust Speed Precip Events Conditions
12:00 AM 77.0 °F - 68.0 °F 74% 30.01 in 6.2 mi East 8.1 mph - N/A   Partly Cloudy
1:00 AM 77.0 °F - 69.8 °F 78% 30.01 in 6.2 mi East 8.1 mph - N/A   Partly Cloudy
2:00 AM 77 °F - 69 °F 70% 30.01 in 25 mi East 10.4 mph - -   Scattered Clouds
2:00 AM 77.0 °F - 68.0 °F 74% 30.01 in 6.2 mi East 10.4 mph - N/A   Partly Cloudy
3:00 AM 77.0 °F - 68.0 °F 74% 29.98 in 6.2 mi East 6.9 mph - N/A   Partly Cloudy
4:00 AM 77.0 °F - 68.0 °F 74% 29.98 in 6.2 mi East 8.1 mph - N/A   Partly Cloudy
5:00 AM 77 °F - 68 °F 67%  in 25 mi East 8.1 mph - -  
5:00 AM 77.0 °F - 68.0 °F 74% 29.98 in 6.2 mi East 8.1 mph - N/A   Partly Cloudy
6:00 AM 77.0 °F - 68.0 °F 74% 30.01 in 6.2 mi East 9.2 mph - N/A   Partly Cloudy
7:00 AM 77.0 °F - 68.0 °F 74% 30.04 in 6.2 mi East 9.2 mph - N/A   Partly Cloudy
8:00 AM 79 °F - 69 °F 64% 30.06 in 37 mi East 9.2 mph - -   Partly Cloudy
8:00 AM 78.8 °F - 69.8 °F 74% 30.04 in 6.2 mi East 9.2 mph - N/A   Scattered Clouds
9:00 AM 80.6 °F 83.9 °F 69.8 °F 70% 30.06 in 6.2 mi East 6.9 mph - N/A   Scattered Clouds
10:00 AM 80.6 °F 83.9 °F 69.8 °F 70% 30.09 in 6.2 mi East 8.1 mph - N/A   Scattered Clouds
11:00 AM 79 °F - 70 °F 67% 30.09 in 37 mi East 12.7 mph - - Rain Light Rain Showers
11:00 AM 78.8 °F - 69.8 °F 74% 30.06 in 6.2 mi East 12.7 mph - N/A Rain Light Rain Showers
12:00 PM 82.4 °F 84.6 °F 66.2 °F 58% 30.06 in 6.2 mi East 13.8 mph - N/A   Scattered Clouds
1:00 PM 84.2 °F 88.4 °F 69.8 °F 62% 30.06 in 6.2 mi East 15.0 mph - N/A   Scattered Clouds
2:00 PM 83 °F - 71 °F 59% 30.04 in 19 mi East 5.8 mph - - Rain Light Rain Showers
2:00 PM 82.4 °F 87.2 °F 71.6 °F 70% 30.04 in 6.2 mi East 5.8 mph - N/A Rain Light Rain Showers
3:00 PM 80.6 °F 83.2 °F 68.0 °F 65% 30.01 in 6.2 mi East 12.7 mph - N/A   Scattered Clouds
4:00 PM 82.4 °F 85.4 °F 68.0 °F 62% 30.01 in 6.2 mi East 9.2 mph - N/A   Scattered Clouds
5:00 PM 80 °F - 68 °F 58% 30.04 in 37 mi East 9.2 mph - -   Scattered Clouds
5:00 PM 80.6 °F 83.2 °F 68.0 °F 65% 30.04 in 6.2 mi East 9.2 mph - N/A   Partly Cloudy
6:00 PM 78.8 °F - 68.0 °F 69% 30.04 in 6.2 mi East 10.4 mph - N/A   Scattered Clouds
7:00 PM 78.8 °F - 68.0 °F 69% 30.04 in 6.2 mi East 9.2 mph - N/A   Partly Cloudy
8:00 PM 78 °F - 68 °F 63% 30.06 in 25 mi East 12.7 mph - -  
8:00 PM 78.8 °F - 68.0 °F 69% 30.04 in 6.2 mi East 12.7 mph - N/A   Partly Cloudy
9:00 PM 78.8 °F - 68.0 °F 69% 30.06 in 6.2 mi East 9.2 mph - N/A   Scattered Clouds
10:00 PM 78.8 °F - 68.0 °F 69% 30.06 in 6.2 mi East 11.5 mph - N/A   Partly Cloudy
11:00 PM 78 °F - 67 °F 61% 30.08 in 25 mi East 10.4 mph - -   Partly Cloudy
11:00 PM 77.0 °F - 66.2 °F 69% 30.06 in 6.2 mi East 10.4 mph - N/A   Scattered Clouds